Tracking 19827 objects as of 22-Aug-2019
HD Live streaming from Space Station
objects crossing your sky now

OPS 9381 (GGTS)

Track OPS 9381 (GGTS) now!
OPS 9381 (GGTS) is classified as:


NORAD ID: 2207
Int'l Code: 1966-053A
Perigee: 33,653.1 km
Apogee: 33,867.0 km
Inclination: 4.2 °
Period: 1,333.5 minutes
Semi major axis: 40131 km
RCS: 0.8912 m2 (medium)
Launch date: June 16, 1966
Source: United States (US)
Launch site: AIR FORCE EASTERN TEST RANGE (AFETR)
aabbcc
Your satellite tracking list
Your tracking list is empty




NASA's NSSDC Master Catalog

Two Line Element Set (TLE):
1  2207U 66053A   19233.91247069 -.00000077 +00000-0 +00000-0 0  9992
2  2207 004.1731 058.4613 0026640 174.4498 026.9691 01.07989663209059
Source of the keplerian elements: AFSPC